• In Russia
  • List of Countries
  • For 7 days
  • Water Temperature
  • Satellite Maps
  • Weather Map
  • Weather Widgets
  • user-avatar
    Login

    Hourly Weather Melbourne

    Today, 25 July, Tuesday

    Time Temperature Precipitation Wind Pressure Humidity
    00:00 +10°C° 0 mm 4 mps 762 mmHg 88%
    01:00 +10°C° 0 mm 4 mps 762 mmHg 88%
    02:00 +10°C° 0 mm 4 mps 762 mmHg 87%
    03:00 +8°C° 0 mm 4 mps 762 mmHg 85%
    04:00 +9°C° 0 mm 5 mps 761 mmHg 82%
    05:00 +9°C° 0 mm 5 mps 761 mmHg 81%
    06:00 +9°C° 0 mm 5 mps 761 mmHg 80%
    07:00 +9°C° 0 mm 5 mps 761 mmHg 78%
    08:00 +10°C° 0 mm 6 mps 761 mmHg 75%
    09:00 +11°C° 0 mm 6 mps 760 mmHg 71%
    10:00 +13°C° 0 mm 6 mps 760 mmHg 67%
    11:00 +14°C° 0 mm 6 mps 760 mmHg 64%
    12:00 +15°C° 0 mm 6 mps 759 mmHg 60%
    13:00 +16°C° 0 mm 6 mps 758 mmHg 57%
    14:00 +16°C° 0.1 mm 6 mps 758 mmHg 60%
    15:00 +16°C° 0.1 mm 5 mps 758 mmHg 62%
    16:00 +16°C° 0.1 mm 5 mps 758 mmHg 64%
    17:00 +14°C° 0.6 mm 5 mps 758 mmHg 70%
    18:00 +13°C° 0.6 mm 4 mps 758 mmHg 77%
    19:00 +12°C° 0.6 mm 4 mps 758 mmHg 83%
    20:00 +11°C° 0.2 mm 4 mps 758 mmHg 84%
    21:00 +11°C° 0.2 mm 4 mps 758 mmHg 85%
    22:00 +10°C° 0.2 mm 5 mps 758 mmHg 86%
    23:00 +9°C° 0 mm 5 mps 758 mmHg 86%

    Tomorrow, 26 July, Wednesday

    Time Temperature Precipitation Wind Pressure Humidity
    00:00 +9°C° 0 mm 5 mps 758 mmHg 86%
    01:00 +8°C° 0 mm 5 mps 758 mmHg 86%
    02:00 +8°C° 0 mm 5 mps 758 mmHg 85%
    03:00 +8°C° 0 mm 5 mps 758 mmHg 85%
    04:00 +8°C° 0 mm 5 mps 758 mmHg 85%
    05:00 +9°C° 0.1 mm 5 mps 759 mmHg 85%
    06:00 +9°C° 0.1 mm 5 mps 759 mmHg 84%
    07:00 +10°C° 0.1 mm 4 mps 760 mmHg 84%
    08:00 +9°C° 0.1 mm 5 mps 760 mmHg 83%
    09:00 +10°C° 0.1 mm 5 mps 761 mmHg 81%
    10:00 +10°C° 0.1 mm 5 mps 762 mmHg 80%
    11:00 +12°C° 0.3 mm 5 mps 762 mmHg 76%
    12:00 +13°C° 0.3 mm 5 mps 762 mmHg 73%
    13:00 +13°C° 0.3 mm 5 mps 762 mmHg 70%
    14:00 +13°C° 0.2 mm 5 mps 763 mmHg 69%
    15:00 +13°C° 0.2 mm 5 mps 763 mmHg 68%
    16:00 +13°C° 0.2 mm 4 mps 764 mmHg 67%
    17:00 +11°C° 0 mm 3 mps 764 mmHg 72%
    18:00 +10°C° 0 mm 3 mps 765 mmHg 76%
    19:00 +8°C° 0 mm 2 mps 765 mmHg 81%
    20:00 +8°C° 0 mm 2 mps 766 mmHg 83%
    21:00 +7°C° 0 mm 2 mps 766 mmHg 86%
    22:00 +8°C° 0 mm 1 mps 767 mmHg 88%
    23:00 +7°C° 0 mm 1 mps 767 mmHg 89%

    Day after tomorrow, 27 July, Thursday

    Time Temperature Precipitation Wind Pressure Humidity
    00:00 +7°C° 0 mm 1 mps 767 mmHg 90%
    01:00 +6°C° 0 mm 2 mps 767 mmHg 91%
    02:00 +5°C° 0 mm 2 mps 767 mmHg 91%
    03:00 +5°C° 0 mm 2 mps 766 mmHg 92%
    04:00 +5°C° 0 mm 2 mps 766 mmHg 92%
    05:00 +5°C° 0 mm 2 mps 766 mmHg 92%
    06:00 +5°C° 0 mm 2 mps 766 mmHg 92%
    07:00 +5°C° 0 mm 2 mps 766 mmHg 91%
    08:00 +5°C° 0 mm 3 mps 766 mmHg 85%
    09:00 +8°C° 0 mm 3 mps 766 mmHg 79%
    10:00 +10°C° 0 mm 4 mps 766 mmHg 73%
    11:00 +10°C° 0 mm 5 mps 765 mmHg 68%
    12:00 +12°C° 0 mm 5 mps 764 mmHg 63%
    13:00 +14°C° 0 mm 6 mps 763 mmHg 58%
    14:00 +13°C° 0 mm 6 mps 762 mmHg 61%
    15:00 +13°C° 0 mm 6 mps 762 mmHg 63%
    16:00 +12°C° 0 mm 7 mps 761 mmHg 65%
    17:00 +12°C° 0.1 mm 7 mps 761 mmHg 66%
    18:00 +12°C° 0.1 mm 7 mps 760 mmHg 68%
    19:00 +11°C° 0.1 mm 7 mps 760 mmHg 69%
    20:00 +11°C° 0.5 mm 7 mps 760 mmHg 75%
    21:00 +10°C° 0.5 mm 7 mps 760 mmHg 80%
    22:00 +10°C° 0.5 mm 7 mps 760 mmHg 86%
    23:00 +10°C° 0.5 mm 6 mps 760 mmHg 88%

    28 July, Friday

    Time Temperature Precipitation Wind Pressure Humidity
    00:00 +10°C° 0.5 mm 6 mps 760 mmHg 89%
    01:00 +9°C° 0.5 mm 5 mps 760 mmHg 91%
    02:00 +10°C° 0.2 mm 4 mps 760 mmHg 92%
    03:00 +9°C° 0.2 mm 3 mps 760 mmHg 93%
    04:00 +9°C° 0.2 mm 3 mps 760 mmHg 94%
    05:00 +8°C° 0 mm 3 mps 761 mmHg 94%
    06:00 +8°C° 0 mm 3 mps 761 mmHg 94%
    07:00 +7°C° 0 mm 3 mps 762 mmHg 94%
    08:00 +9°C° 0 mm 3 mps 762 mmHg 90%
    09:00 +10°C° 0 mm 3 mps 763 mmHg 86%
    10:00 +11°C° 0 mm 3 mps 763 mmHg 83%
    11:00 +12°C° 0 mm 3 mps 763 mmHg 75%
    12:00 +14°C° 0 mm 2 mps 762 mmHg 67%
    13:00 +15°C° 0 mm 2 mps 762 mmHg 59%
    14:00 +15°C° 0 mm 2 mps 762 mmHg 60%
    15:00 +15°C° 0 mm 2 mps 761 mmHg 61%
    16:00 +15°C° 0 mm 2 mps 761 mmHg 62%
    17:00 +13°C° 0 mm 3 mps 761 mmHg 66%
    18:00 +12°C° 0 mm 3 mps 761 mmHg 70%
    19:00 +11°C° 0 mm 4 mps 761 mmHg 75%
    20:00 +11°C° 0 mm 4 mps 761 mmHg 72%
    21:00 +10°C° 0 mm 5 mps 761 mmHg 70%
    22:00 +10°C° 0 mm 6 mps 761 mmHg 68%
    23:00 +11°C° 0 mm 6 mps 760 mmHg 65%

    29 July, Saturday

    Time Temperature Precipitation Wind Pressure Humidity
    00:00 +11°C° 0 mm 7 mps 759 mmHg 63%
    01:00 +12°C° 0 mm 8 mps 758 mmHg 60%
    02:00 +12°C° 0 mm 8 mps 757 mmHg 59%
    03:00 +11°C° 0 mm 8 mps 757 mmHg 58%
    04:00 +11°C° 0 mm 8 mps 756 mmHg 57%
    05:00 +11°C° 0 mm 8 mps 756 mmHg 57%
    06:00 +11°C° 0 mm 8 mps 756 mmHg 57%
    07:00 +11°C° 0 mm 8 mps 755 mmHg 57%
    08:00 +12°C° 0 mm 8 mps 755 mmHg 54%
    09:00 +13°C° 0 mm 8 mps 755 mmHg 52%
    10:00 +15°C° 0 mm 8 mps 754 mmHg 49%
    11:00 +16°C° 0 mm 8 mps 753 mmHg 47%
    12:00 +18°C° 0 mm 8 mps 752 mmHg 45%
    13:00 +20°C° 0 mm 8 mps 751 mmHg 43%
    14:00 +21°C° 0 mm 7 mps 750 mmHg 43%
    15:00 +21°C° 0 mm 6 mps 750 mmHg 43%
    16:00 +21°C° 0 mm 5 mps 750 mmHg 43%
    17:00 +19°C° 0.4 mm 5 mps 750 mmHg 56%
    18:00 +16°C° 0.4 mm 5 mps 751 mmHg 69%
    19:00 +14°C° 0.4 mm 6 mps 751 mmHg 82%
    20:00 +13°C° 1.6 mm 5 mps 752 mmHg 85%
    21:00 +12°C° 1.6 mm 5 mps 752 mmHg 88%
    22:00 +12°C° 1.6 mm 4 mps 753 mmHg 92%
    23:00 +11°C° 0.5 mm 4 mps 753 mmHg 91%

    30 July, Sunday

    Time Temperature Precipitation Wind Pressure Humidity
    00:00 +11°C° 0.5 mm 4 mps 753 mmHg 91%
    01:00 +11°C° 0.5 mm 4 mps 753 mmHg 91%
    02:00 +10°C° 0.2 mm 4 mps 753 mmHg 90%
    03:00 +9°C° 0.2 mm 5 mps 753 mmHg 90%
    04:00 +9°C° 0.2 mm 5 mps 753 mmHg 89%
    05:00 +9°C° 0.1 mm 5 mps 754 mmHg 88%
    06:00 +9°C° 0.1 mm 6 mps 754 mmHg 88%
    07:00 +8°C° 0.1 mm 6 mps 754 mmHg 87%
    08:00 +9°C° 0.1 mm 6 mps 755 mmHg 83%
    09:00 +9°C° 0.1 mm 6 mps 756 mmHg 78%
    10:00 +10°C° 0.1 mm 6 mps 756 mmHg 74%
    11:00 +11°C° 0.1 mm 6 mps 756 mmHg 69%
    12:00 +11°C° 0.1 mm 6 mps 756 mmHg 64%
    13:00 +13°C° 0.1 mm 6 mps 756 mmHg 59%
    14:00 +13°C° 0.2 mm 6 mps 757 mmHg 61%
    15:00 +12°C° 0.2 mm 5 mps 757 mmHg 64%
    16:00 +12°C° 0.2 mm 5 mps 757 mmHg 67%
    17:00 +10°C° 0.3 mm 5 mps 758 mmHg 73%
    18:00 +10°C° 0.3 mm 4 mps 759 mmHg 79%
    19:00 +8°C° 0.3 mm 4 mps 760 mmHg 85%
    20:00 +7°C° 0.2 mm 4 mps 760 mmHg 86%
    21:00 +7°C° 0.2 mm 4 mps 761 mmHg 87%
    22:00 +6°C° 0.2 mm 4 mps 761 mmHg 89%
    23:00 +6°C° 0 mm 4 mps 762 mmHg 88%
    Show more